Flag for Canada Weather past 2 weeks in Pond Inlet, Nunavut Territory, Canada

Now
-29 °F

Clear.


Feels Like: -41 °F
Forecast: -30 / -29 °F
Wind: 3 mph from Southeast

Location: Pond Inlet

Current Time: Jan 31, 2015 at 8:53:55 AM

Latest Report: Jan 31, 2015 at 8:00 AM


Visibility: 9 mi

Pressure: 30.05 "Hg

Humidity: 67%

Dew point: -36 °F

Location of Pond InletLocation

Historic Weather in Pond Inlet — Graph

°F

Pond Inlet temperature yesterday

Maximum temperature yesterday: -24 °F (at 11:00 PM)
Minimum temperature yesterday: -33 °F (at 1:00 AM)
Average temperature yesterday: -29 °F

Past Weeks' High & Low Weather Summary

 TemperatureHumidityPressure
High-20 °F (Jan 19, 7:56 AM)75% (Jan 18, 11:00 PM)30.11 "Hg (Jan 18, 11:00 PM)
Low-45 °F (Jan 26, 5:00 PM)57% (Jan 24, 8:02 AM)29.15 "Hg (Jan 19, 12:57 AM)
Average-34 °F65%29.80 "Hg
* Reported Jan 16 7:00 AM — Jan 31 7:00 AM, Pond Inlet, Weather by CustomWeather, © 2014

Note: Actual official high and low records may vary slightly from our data, if they occured in-between our weather recording intervals... More about our weather records

Advertising

Pond Inlet weather history for previous 24 hours

 ConditionsComfort  
Time TempWeatherWind HumidityBarometerVisibility
7:00 AM
Jan 31
-29 °FClear.6 mph67%30.05 "Hg9 mi
6:00 AM-29 °FClear.5 mph74%30.05 "Hg9 mi
5:00 AM-29 °FClear.7 mph67%30.06 "Hg9 mi
4:00 AM-29 °FClear.3 mph74%30.06 "Hg9 mi
3:00 AM-29 °FClear.5 mph67%30.06 "Hg9 mi
2:00 AM-27 °FClear.5 mph67%30.06 "Hg9 mi
1:00 AM-26 °FOvercast.5 mph67%30.07 "Hg9 mi
12:00 AM-24 °FOvercast.5 mph68%30.07 "Hg9 mi
11:00 PM
Jan 30
-24 °FMostly cloudy.3 mph75%30.08 "Hg9 mi
10:00 PM-26 °FOvercast.5 mph67%30.09 "Hg9 mi
9:00 PM-29 °FPassing clouds.5 mph74%30.09 "Hg9 mi
8:00 PM-29 °FClear.5 mph67%30.08 "Hg9 mi
7:00 PM-29 °FPassing clouds.6 mph67%30.08 "Hg15 mi
6:00 PM-29 °FPassing clouds.6 mph67%30.08 "Hg15 mi
5:00 PM-27 °FPassing clouds.6 mph67%30.07 "Hg15 mi
4:00 PM-27 °FPassing clouds.5 mph67%30.06 "Hg15 mi
3:00 PM-29 °FPassing clouds.6 mph74%30.05 "Hg15 mi
2:00 PM-29 °FPassing clouds.7 mph67%30.03 "Hg15 mi
1:00 PM-29 °FPassing clouds.7 mph67%30.03 "Hg15 mi
12:00 PM-29 °FPassing clouds.7 mph67%30.02 "Hg15 mi
11:00 AM-29 °FScattered clouds.7 mph67%30.02 "Hg15 mi
10:00 AM-29 °FSunny.8 mph74%30.01 "Hg9 mi
9:00 AM-29 °FClear.9 mph67%30.00 "Hg9 mi
8:00 AM-29 °FPassing clouds.8 mph74%29.99 "Hg9 mi
Weather by CustomWeather, © 2014

See weather overviewHow to use our weather pages